Home > Weather > Braunau am Inn > Past weeks

Flag for Austria Past Weather in Braunau am Inn, Upper Austria, Austria — Yesterday and Last 2 Weeks

Now
70 °F

Overcast.


Feels Like: 70 °F
Forecast: 62 / 78 °F
Wind: N/A

Location: Salzburg-Flughafen

Current Time: Jul 25, 2016 at 12:35:13 AM

Latest Report: Jul 25, 2016 at 12:00 AM


Visibility: 28 mi

Pressure: 30.04 "Hg

Humidity: 80%

Dew Point: 63 °F

Location of Braunau am InnLocation

Past Weather in Braunau am Inn — Graph

°F

Braunau am Inn Temperature Yesterday

Maximum temperature yesterday: 80 °F (at 5:00 PM)
Minimum temperature yesterday: 63 °F (at 4:00 AM)
Average temperature yesterday: 71 °F

High & Low Weather Summary for the Past Weeks

 TemperatureHumidityPressure
High89 °F (Jul 11, 4:00 PM)100% (Jul 16, 4:00 AM)30.34 "Hg (Jul 16, 4:00 AM)
Low50 °F (Jul 14, 10:00 AM)37% (Jul 20, 5:00 PM)29.78 "Hg (Jul 11, 7:00 PM)
Average66 °F78%30.05 "Hg
* Reported Jul 9 11:00 PM — Jul 24 11:00 PM, Braunau am Inn, Weather by CustomWeather, © 2016

Note: Actual official high and low records may vary slightly from our data, if they occured in-between our weather recording intervals... More about our weather records

Advertising

Braunau am Inn Weather History for the Previous 24 Hours

Scroll right to see more
 ConditionsComfort  
Time TempWeatherWind HumidityBarometerVisibility
11:00 PM
Sun, Jul 24
71 °FOvercast.N/A77%30.03 "Hg28 mi
10:00 PM70 °FPassing clouds.N/A79%30.03 "Hg28 mi
9:00 PM75 °FPassing clouds.N/A63%30.00 "Hg31 mi
8:00 PM79 °FPassing clouds.N/A54%29.99 "Hg25 mi
7:00 PM80 °FPassing clouds.N/A55%29.98 "Hg25 mi
6:00 PM80 °FPassing clouds.N/A54%29.98 "Hg17 mi
5:00 PM80 °FPassing clouds.N/A57%29.99 "Hg16 mi
4:00 PM79 °FPassing clouds.N/A54%30.01 "Hg14 mi
3:00 PM79 °FPartly sunny.5 mph53%30.02 "Hg17 mi
2:00 PM77 °FPartly sunny.N/A56%30.03 "Hg19 mi
1:00 PM77 °FPartly sunny.N/A60%30.04 "Hg22 mi
12:00 PM75 °FPartly sunny.N/A59%30.05 "Hg18 mi
11:00 AM74 °FPartly sunny.N/A68%30.06 "Hg28 mi
10:00 AM68 °FPartly sunny.N/A87%30.09 "Hg19 mi
9:00 AM65 °FPartly sunny.N/A94%30.10 "Hg22 mi
8:00 AM64 °FLow clouds.3 mph96%30.09 "Hg11 mi
7:00 AM64 °FLight rain. Low clouds.N/A97%30.09 "Hg4 mi
6:00 AM63 °FLow clouds.N/A98%30.09 "Hg5 mi
5:00 AM64 °FOvercast.N/A98%30.09 "Hg6 mi
4:00 AM63 °FLow clouds.N/A98%30.09 "Hg7 mi
3:00 AM64 °FLow clouds.N/A97%30.09 "Hg7 mi
2:00 AM65 °FLow clouds.N/A99%30.09 "Hg4 mi
1:00 AM64 °FOvercast.N/A98%30.09 "Hg7 mi
12:00 AM65 °FPassing clouds.N/A97%30.07 "Hg9 mi
Weather by CustomWeather, © 2016

See weather overviewHow to use our weather pages